Weather History for Wheeler AAF, HI

Change the Weather History Date:

Sunday, July 28, 2013

  Actual Average Record
Temperature  
Mean Temperature 76 °F -  
Max Temperature 83 °F 81 °F 86 °F (2004)
Min Temperature 69 °F 67 °F 64 °F (2010)
Cooling Degree Days 11    
Growing Degree Days 26 (Base 50)    
Moisture  
Dew Point 67 °F    
Average Humidity 79    
Maximum Humidity 94    
Minimum Humidity 50    
Precipitation  
Precipitation 0.02 in - - ()
Sea Level Pressure  
Sea Level Pressure 29.97 in    
Wind  
Wind Speed 6 mph (NE)    
Max Wind Speed 16 mph    
Max Gust Speed 21 mph    
Visibility 10 miles    
Events Rain    
Averages and records for this station are not official NWS values.
T = Trace of Precipitation, MM = Missing Value Source: NWS Daily Summary

Daily Weather History Graph

Daily Weather History Graph

Search for Another Location

Airport:

Trip Planner

Search our weather history database for the weather conditions in past years. The results will help you decide how hot, cold, wet, or windy it might be!

Date:

Astronomy

Jul. 28, 2013 Rise Set
Actual Time 6:04 AM HST 7:13 PM HST
Civil Twilight 5:40 AM HST 7:36 PM HST
Nautical Twilight 5:11 AM HST 8:05 PM HST
Astronomical Twilight 4:42 AM HST 8:34 PM HST
Moon 11:42 PM HST (7/28) 11:59 AM HST (7/28)
Length of Visible Light 13h 56m
Length of Day
13h 09m
Waning Gibbous, 58% of the Moon is Illuminated
Jul 28
Waning Gibbous
Jul 29
Last Quarter
Aug 6
New
Aug 14
First Quarter
Aug 20
Full

Hourly Weather History & Observations

Time (HST) Temp. Heat Index Dew Point Humidity Pressure Visibility Wind Dir Wind Speed Gust Speed Precip Events Conditions
12:55 AM 71.4 °F - 62.4 °F 73% 30.00 in 10.0 mi NW 3.5 mph - N/A   Scattered Clouds
1:55 AM 70.9 °F - 63.7 °F 78% 29.99 in 10.0 mi WNW 3.5 mph - N/A   Overcast
2:33 AM 73.4 °F - 64.4 °F 73% 29.98 in 10.0 mi Variable 6.9 mph - N/A   Light Drizzle
2:55 AM 71.6 °F - 66.2 °F 83% 29.98 in 9.0 mi East 3.5 mph - 0.01 in   Light Drizzle
2:58 AM 71.6 °F - 66.2 °F 83% 29.98 in 10.0 mi Calm Calm - N/A   Mostly Cloudy
3:17 AM 69.8 °F - 66.2 °F 88% 29.98 in 10.0 mi NW 4.6 mph - N/A   Heavy Drizzle
3:31 AM 71.6 °F - 66.2 °F 83% 29.98 in 10.0 mi Variable 5.8 mph - N/A   Scattered Clouds
3:54 AM 71.6 °F - 66.2 °F 83% 29.98 in 10.0 mi East 5.8 mph - N/A   Light Drizzle
3:55 AM 72.3 °F - 66.0 °F 80% 29.98 in 10.0 mi East 6.9 mph - 0.00 in   Light Drizzle
4:10 AM 71.6 °F - 66.2 °F 83% 29.97 in 10.0 mi East 4.6 mph - N/A   Mostly Cloudy
4:55 AM 69.1 °F - 65.1 °F 87% 29.97 in 10.0 mi WNW 5.8 mph - 0.00 in   Scattered Clouds
5:55 AM 69.8 °F - 64.6 °F 83% 29.98 in 10.0 mi Calm Calm - N/A   Mostly Cloudy
6:47 AM 69.8 °F - 64.4 °F 83% 29.99 in 10.0 mi NW 3.5 mph - N/A   Light Drizzle
6:55 AM 69.3 °F - 64.8 °F 86% 29.99 in 10.0 mi Calm Calm - 0.00 in   Light Drizzle
6:58 AM 69.8 °F - 64.4 °F 83% 30.00 in 10.0 mi Calm Calm - N/A   Scattered Clouds
7:55 AM 72.0 °F - 66.4 °F 83% 30.00 in 10.0 mi Calm Calm - 0.00 in   Mostly Cloudy
8:30 AM 73.4 °F - 66.2 °F 78% 30.00 in 10.0 mi Calm Calm - N/A   Mostly Cloudy
8:31 AM 73.4 °F - 66.2 °F 78% 30.01 in 10.0 mi Calm Calm - N/A   Mostly Cloudy
8:34 AM 73.4 °F - 66.2 °F 78% 30.01 in 8.0 mi East 5.8 mph - N/A   Light Drizzle
8:54 AM 73.4 °F - 66.2 °F 78% 30.01 in 6.0 mi East 5.8 mph - N/A   Light Drizzle
8:55 AM 72.7 °F - 66.9 °F 82% 30.01 in 6.0 mi East 5.8 mph - 0.00 in   Light Drizzle
9:09 AM 71.6 °F - 68.0 °F 88% 30.01 in 10.0 mi Calm Calm - N/A   Overcast
9:55 AM 76.3 °F - 67.8 °F 75% 30.01 in 10.0 mi ESE 8.1 mph - 0.00 in   Mostly Cloudy
10:55 AM 77.0 °F - 65.5 °F 67% 29.99 in 10.0 mi ENE 8.1 mph - N/A   Overcast
11:55 AM 81.0 °F 82.1 °F 62.4 °F 53% 29.97 in 10.0 mi East 12.7 mph - N/A   Mostly Cloudy
12:55 PM 82.6 °F 83.6 °F 62.8 °F 51% 29.96 in 10.0 mi East 16.1 mph - N/A   Scattered Clouds
1:55 PM 83.1 °F 84.0 °F 62.6 °F 50% 29.95 in 10.0 mi East 9.2 mph 18.4 mph N/A   Clear
2:55 PM 83.5 °F 84.7 °F 63.9 °F 51% 29.94 in 10.0 mi East 13.8 mph 20.7 mph N/A   Clear
3:01 PM 82.4 °F 83.9 °F 64.4 °F 54% 29.94 in 10.0 mi East 11.5 mph - N/A   Light Drizzle
3:07 PM 82.4 °F 83.9 °F 64.4 °F 54% 29.94 in 10.0 mi East 11.5 mph - N/A   Clear
4:55 PM 79.9 °F - 64.9 °F 60% 29.93 in 10.0 mi ESE 11.5 mph - N/A   Partly Cloudy
5:55 PM 79.0 °F - 66.2 °F 65% 29.93 in 10.0 mi East 11.5 mph - N/A   Mostly Cloudy
6:55 PM 77.0 °F - 66.4 °F 70% 29.94 in 10.0 mi NE 6.9 mph - N/A   Scattered Clouds
7:47 PM 77.0 °F - 68.0 °F 74% 29.94 in 10.0 mi NNW 3.5 mph - N/A   Mostly Cloudy
7:48 PM 75.2 °F - 68.0 °F 78% 29.94 in 10.0 mi NNW 4.6 mph - N/A   Overcast
7:55 PM 75.9 °F - 67.6 °F 75% 29.94 in 10.0 mi North 8.1 mph - N/A   Overcast
7:57 PM 75.2 °F - 68.0 °F 78% 29.95 in 10.0 mi NW 6.9 mph - N/A   Overcast
8:42 PM 75.2 °F - 68.0 °F 78% 29.95 in 10.0 mi Calm Calm - N/A   Mostly Cloudy
8:54 PM 75.2 °F - 68.0 °F 78% 29.96 in 10.0 mi ENE 6.9 mph - N/A   Mostly Cloudy
8:55 PM 75.7 °F - 68.4 °F 78% 29.96 in 10.0 mi NE 6.9 mph - N/A   Mostly Cloudy
9:10 PM 75.2 °F - 68.0 °F 78% 29.96 in 10.0 mi ENE 9.2 mph - N/A   Scattered Clouds
9:40 PM 75.2 °F - 69.8 °F 83% 29.96 in 10.0 mi NNE 9.2 mph - N/A   Partly Cloudy
9:55 PM 75.2 °F - 69.1 °F 81% 29.96 in 10.0 mi North 8.1 mph - N/A   Partly Cloudy
10:22 PM 75.2 °F - 69.8 °F 83% 29.96 in 8.0 mi Variable 5.8 mph - N/A Rain Light Rain
10:37 PM 75.2 °F - 71.6 °F 89% 29.96 in 8.0 mi NE 10.4 mph - N/A Rain Light Rain
10:41 PM 75.2 °F - 71.6 °F 89% 29.96 in 8.0 mi ENE 11.5 mph - N/A   Mostly Cloudy
10:44 PM 73.4 °F - 71.6 °F 94% 29.96 in 8.0 mi NE 9.2 mph - N/A Rain Light Rain
10:46 PM 73.4 °F - 71.6 °F 94% 29.96 in 8.0 mi NE 9.2 mph - N/A   Mostly Cloudy
10:51 PM 73.4 °F - 71.6 °F 94% 29.95 in 10.0 mi NE 6.9 mph - N/A   Scattered Clouds
10:55 PM 73.8 °F - 70.9 °F 91% 29.95 in 10.0 mi ENE 11.5 mph - 0.01 in   Scattered Clouds
10:59 PM 73.4 °F - 71.6 °F 94% 29.95 in 10.0 mi NE 12.7 mph - N/A   Partly Cloudy
11:00 PM 73.4 °F - 71.6 °F 94% 29.95 in 10.0 mi NE 12.7 mph - N/A   Partly Cloudy
11:08 PM 73.4 °F - 71.6 °F 94% 29.95 in 10.0 mi NNE 8.1 mph - N/A   Light Drizzle
11:17 PM 73.4 °F - 71.6 °F 94% 29.95 in 10.0 mi Variable 3.5 mph - N/A   Clear
11:19 PM 73.4 °F - 69.8 °F 88% 29.95 in 10.0 mi Variable 4.6 mph - N/A   Light Drizzle
11:30 PM 73.4 °F - 69.8 °F 88% 29.95 in 10.0 mi ESE 3.5 mph - N/A   Clear
11:55 PM 73.2 °F - 70.5 °F 91% 29.94 in 10.0 mi NE 5.8 mph - 0.00 in   Clear